Tracking 30995 objects as of 5-Jul-2025
HD Live streaming from Space Station
objects crossing your sky now

ASTRA 1G

Track ASTRA 1G now!
ASTRA 1G is classified as:


NORAD ID: 25071
Int'l Code: 1997-076A
Perigee: 36,109.0 km
Apogee: 36,178.2 km
Inclination: 8.7 °
Period: 1,454.0 minutes
Semi major axis: 42514 km
RCS: 1.138 m2 (large)
Launch date: December 2, 1997
Source: SOCIETE EUROPEENNE DES SATELLITES (SES)
Launch site: TYURATAM MISSILE AND SPACE COMPLEX (TTMTR)

Direct-to-home tv; multimedia; 32 Ku-band transponders; Europe
Your satellite tracking list
Your tracking list is empty




NASA's NSSDC Master Catalog

Two Line Element Set (TLE):
1 25071U 97076A   25185.54942513 -.00000069  00000-0  00000-0 0  9994
2 25071   8.7011  58.1628 0008141 127.8391 213.8309  0.99036675100922
Source of the keplerian elements: AFSPC